Regional Weather Roundup
Issued by NWS

Home | Current Version | Previous Version | Graphics & Text | Print | Product List | Glossary On
Versions: 1 2 3 4 5 6 7 8 9 10 11 12 13 14 15 16 17 18 19 20 21 22 23 24 25 26 27 28 29 30 31 32 33 34 35 36 37 38 39 40 41 42 43 44 45 46 47 48 49 50
000
ASUS45 KCYS 301210
RWRWY

WYOMING REGIONAL WEATHER ROUNDUP
NATIONAL WEATHER SERVICE CHEYENNE WY
600 AM MDT WED JUL 30 2014

NOTE:  "FAIR" INDICATES FEW OR NO CLOUDS BELOW 12,000 FEET
WITH NO SIGNIFICANT WEATHER AND/OR OBSTRUCTIONS TO VISIBILITY.

WYZ001-301300-
YELLOWSTONE NATIONAL PARK

CITY           SKY/WX    TMP DP  RH WIND       PRES   REMARKS
LK YELLOWSTONE   N/A     40  39  97 W3        30.48S
6HR MIN TEMP:  39; 6HR MAX TEMP:  44;

W YELLOWSTONE  NOT AVBL

$$
WYZ002>013-054>058-071-098>099-301300-
NORTHERN WYOMING

CITY           SKY/WX    TMP DP  RH WIND       PRES   REMARKS
JACKSON        PTCLDY    48  46  93 N16       30.36S
CODY           NOT AVBL
GREYBULL       MOCLDY    54  51  90 SE3       30.27S
6HR MIN TEMP:  54; 6HR MAX TEMP:  63;

WORLAND        MOCLDY    55  54  96 S5        30.28S
6HR MIN TEMP:  54; 6HR MAX TEMP:  60;

SHERIDAN       PTCLDY    49  44  83 CALM      30.25S
6HR MIN TEMP:  48; 6HR MAX TEMP:  57;

BUFFALO        PTCLDY    56  43  61 W7        30.31S
6HR MIN TEMP:  55; 6HR MAX TEMP:  60;

GILLETTE       PTCLDY    57  51  80 SW5       30.27S
6HR MIN TEMP:  55; 6HR MAX TEMP:  60;

HULETT         FAIR      54  50  87 MISG      30.28
NEWCASTLE      FAIR      52  52 100 CALM      30.29

$$
WYZ014>020-022>026-101>103-301300-
CENTRAL WYOMING

CITY           SKY/WX    TMP DP  RH WIND       PRES   REMARKS
BIG PINEY      CLOUDY    55  53  93 NW3       30.38S
6HR MIN TEMP:  54; 6HR MAX TEMP:  56; 6HR PCP: TRACE;

PINEDALE       CLOUDY    52  48  87 NW5       30.39S
DUBOIS         PTSUNNY   45  43  93 NW6       30.42S
LANDER         CLOUDY    57  56  96 W3        30.34F
6HR MIN TEMP:  57; 6HR MAX TEMP:  59; 6HR PCP:  0.01;

RIVERTON       MOCLDY    56  53  90 NE3       30.35R
6HR MIN TEMP:  55; 6HR MAX TEMP:  59;

CASPER         CLOUDY    53  51  93 NW3       30.33R
6HR MIN TEMP:  52; 6HR MAX TEMP:  57;

DOUGLAS        MOCLDY    54  52  93 CALM      30.32S
6HR MIN TEMP:  53; 6HR MAX TEMP:  58;


$$
WYZ021-027>030-104>119-301300-
SOUTHERN WYOMING

CITY           SKY/WX    TMP DP  RH WIND       PRES   REMARKS
EVANSTON       CLOUDY    55  53  93 E13       30.34S
6HR MIN TEMP:  54; 6HR MAX TEMP:  56; 6HR PCP:  0.02;

KEMMERER       LGT RAIN N/A N/A N/A NE8       30.38S
FORT BRIDGER   CLOUDY    55  55 100 E12       30.38S
ROCK SPRINGS   CLOUDY    56  52  86 NE12      30.35S
6HR MIN TEMP:  56; 6HR MAX TEMP:  57; 6HR PCP: TRACE;

DIXON          DRIZZLE   58  56  95 CALM      30.32S
RAWLINS        LGT RAIN  53  52  96 NE13      30.35S
6HR MIN TEMP:  53; 6HR MAX TEMP:  54; 6HR PCP:  0.02;

SARATOGA       RAIN      54  52  94 CALM      30.36R
LARAMIE        LGT RAIN  53  51  93 NE3       30.37R
6HR MIN TEMP:  53; 6HR MAX TEMP:  54; 6HR PCP:  0.06;

CHEYENNE       LGT RAIN  56  54  93 NE5       30.33S
6HR MIN TEMP:  55; 6HR MAX TEMP:  57; 6HR PCP:  0.20;

TORRINGTON     CLOUDY    60  56  86 N3        30.27R
6HR MIN TEMP:  59; 6HR MAX TEMP:  63;

PINE BLUFFS    LGT RAIN  59  57  94 NW3       30.31R

$$


USA.gov is the U.S. government's official web portal to all federal, state and local government web resources and services.